Location: Gold Fund Mine
(38.3819°N, 119.0996°W)
Time: 23:29:23
(UTC+00:00)

IRIDIUM 104 - Pass Details

Date: 18 September 2020
Orbit: 776 x 779 km, 86.4° (Epoch: 20 October)

Event Time Altitude Azimuth Distance (km) Brightness Sun altitude
Rises 12:02:35 0° 358° (N) 3,267 7.8 -19.8°
Reaches altitude 10° 12:04:57 10° 359° (N) 2,335 7.0 -19.3°
Maximum altitude 12:10:11 84° 88° (E) 786 4.3 -18.3°
Drops below altitude 10° 12:15:23 10° 177° (S) 2,317 6.6 -17.4°
Sets 12:17:43 0° 178° (S) 3,240 7.4 -16.9°
